790  
ASUS45 KTFX 221610  
RWRMT  
MONTANA REGIONAL WEATHER ROUNDUP  
NATIONAL WEATHER SERVICE GREAT FALLS MT  
900 AM MST TUE JAN 22 2019  
 
NOTE: "FAIR" INDICATES FEW OR NO CLOUDS BELOW 12000 FEET WITH NO  
SIGNIFICANT WEATHER AND/OR S TO VISIBILITY
.  
 
MTZ001>007-043-221700-  
WEST OF THE DIVIDE  
 
CITY SKY/WX TMP DP RH WIND PRES REMARKS
 
KALISPELL CLOUDY 23 21 92 S6 30.31R WCI 16  
MISSOULA CLOUDY 23 17 78 E7 30.36S WCI 15  
BUTTE FAIR 2 -3 80 E3 30.22S  
MULLAN PASS CLOUDY 21 14 74 VRB6 30.19S WCI 13  
ANACONDA N/A 19 9 63 S8 30.24S WCI 9  
DEER LODGE N/A 12 10 92 W3 30.28S  
LIBBY N/A 12 12 100 CALM N/A  
PLAINS N/A 21 17 84 CALM 30.34S  
RONAN N/A 25 23 93 S7 30.33S WCI 17  

 
 
MTZ008-052>055-221700-  
SOUTHWEST MONTANA  
 
CITY SKY/WX TMP DP RH WIND PRES REMARKS
 
BOZEMAN FAIR 13 11 92 CALM 30.25F  
DILLON FAIR 17 10 74 SW14 30.23S WCI 3  
ENNIS CLEAR 12 5 73 SE3 30.28R  
W YELLOWSTONE FAIR -13 -18 77 CALM 30.20S  
THREE FORKS N/A 5 1 83 CALM 30.20F  
TWIN BRIDGES N/A 14 6 70 E1 30.21  

 
 
MTZ009-010-012-014-046-048-049-054-221700-  
EAST SLOPES AND CENTRAL MONTANA  
 
CITY SKY/WX TMP DP RH WIND PRES REMARKS
 
CUT BANK FAIR 25 18 74 SW31G37 30.00F HAZE WCI 8  
GREAT FALLS FAIR 22 16 78 SW17 30.08F WCI 8  
HELENA FAIR 13 11 92 W3 30.23F  
AUGUSTA FAIR 25 13 61 W26 30.07R WCI 9  
BOWMANS CRNR FAIR 21 16 81 S20 30.08F WCI 6  
CHOTEAU N/A 28 12 50 W20 30.03S WCI 15  
FAIRFIELD FAIR 27 14 59 SW18G29 30.07S WCI 14  
POWER FAIR 21 15 76 SW20 30.06F WCI 6  
RAYNESFORD FAIR 25 14 62 S13G23 30.09F WCI 14  
WHITE SULPHUR N/A 14 12 92 S14 30.14S WCI -1  

 
 
MTZ011-013-016-021-045-047-050-051-221700-  
NORTH CENTRAL MONTANA  
 
CITY SKY/WX TMP DP RH WIND PRES REMARKS
 
HAVRE FAIR 21 14 74 SW23 30.07F WCI 5  
LEWISTOWN FAIR 10 7 87 E3 30.07F  
N BAR RANCH FAIR 12 5 73 NE3 30.09F  
CHINOOK N/A 3 1 92 E5 30.08F  
GRASS RANGE FAIR 20 11 68 SW12 30.04F WCI 8  
JUDITH GAP FAIR 18 10 70 SW18 30.06F WCI 2  
ROY FAIR 24 13 61 W14 30.06F WCI 12  
STANFORD FAIR 16 7 67 CALM 30.05F  
WINIFRED N/A 22 12 64 SW15 30.06F WCI 9  

 
 
MTZ017>020-022>027-061-062-221700-  
NORTHEAST MONTANA  
 
CITY SKY/WX TMP DP RH WIND PRES REMARKS
 
GLASGOW FAIR 19 15 84 S6 30.11F FOG WCI 11  
GLENDIVE CLOUDY 24 19 81 SW9 30.17F WCI 14  
JORDAN N/A 6 3 87 W6 30.13F WCI -4  
MALTA CLEAR 3 1 92 W7 30.09F WCI -9  
SIDNEY CLOUDY 22 18 85 SW6 30.17F WCI 14  
WOLF POINT CLOUDY 26 22 84 SW7 30.15F WCI 18  
POPLAR N/A 19 18 93 S3 30.16F  
SCOBEY N/A 23 15 71 SW5 30.06  

 
 
MTZ028>42-056>058-221700-  
SOUTHCENTRAL AND SOUTHEAST MONTANA  
 
CITY SKY/WX TMP DP RH WIND PRES REMARKS
 
BAKER CLOUDY 19 17 92 W16G28 30.16S WCI 4  
BILLINGS FAIR 19 13 77 SW13 30.16F WCI 6  
LIVINGSTON FAIR 19 15 84 W14 30.18F WCI 6  
MILES CITY FAIR 23 20 88 SW12 30.18F WCI 12  
BIG TIMBER CLEAR 23 14 68 W39 30.13F HAZE WCI 3  
EKALAKA N/A 18 13 80 W10 30.10R WCI 6  
FORSYTH N/A 23 18 80 SW8 30.20F WCI 14  
HARLOWTON FAIR 22 15 74 W25G32 30.09F WCI 5  

 
 
REGIONAL REPORTS...DAKOTAS  
 
CITY SKY/WX TMP DP RH WIND PRES REMARKS
 
WILLISTON CLOUDY 22 17 81 NW6 30.15F WCI 14  
MINOT FAIR 9 4 80 W10 30.13R WCI -5  
DICKINSON CLOUDY 20 16 84 NW17 30.11R WCI 5  
BEACH CLOUDY 19 18 93 W15G23 30.16S WCI 5  
CROSBY CLOUDY 18 18 100 W7 30.13F WCI 8  
TIOGA CLOUDY 16 16 100 NW14 30.13S WCI 1  
WATFORD CITY CLOUDY 19 18 93 W13 30.15S WCI 7  
BISMARCK FAIR 15 8 73 NW16 30.15S WCI -1  
GRAND FORKS LGT SNOW 12 7 80 NW10 30.09R WCI -1  
FARGO CLOUDY 11 8 88 NW8 30.09S FOG WCI -1  
BUFFALO SD N/A 20 15 81 NW16G25 30.14R WCI 6  
RAPID CITY FAIR 23 16 74 N22G30 30.11R WCI 8  

 
 
REGIONAL REPORTS...WYOMING/IDAHO/WASHINGTON  
 
CITY SKY/WX TMP DP RH WIND PRES REMARKS
 
GILLETTE CLOUDY 20 18 92 NW12 30.16R WCI 8  
SHERIDAN FAIR 19 13 77 S3 30.18S  
BUFFALO WY FAIR 20 14 77 NW5 30.10S  
CODY FAIR 20 9 62 SE5 30.17F  
YELLOWSTONE LA N/A -10 -13 86 CALM 30.17S  
IDAHO FALLS FAIR 15 9 76 SW14 30.33R WCI 0  
SALMON FAIR 9 5 84 CALM 30.44R  
BOISE FAIR 25 20 81 CALM 30.46R  
SPOKANE CLOUDY 30 26 85 S7 30.36R WCI 23  

 
 
REGIONAL REPORTS...ALBERTA  
 
CITY SKY/WX TMP DP RH WIND PRES REMARKS
 
CALGARY MOCLDY 34 5 29 W12G20 29.84R WCI 25  
EDMONTON CLEAR 19 12 73 SW8 29.82F WCI 9  
FORT MCMURRAY CLOUDY 3 0 85 E8 29.85F WCI -10  
HIGH LEVEL LGT SNOW 5 1 85 N3 29.84F  
LETHBRIDGE MOCLDY 32 18 55 W37G47 29.94R WCI 16  
LLOYDMINSTER MOCLDY 14 10 85 SW12 29.83F WCI 0  
MEDICINE HAT MOCLDY 25 14 63 SW17 29.93F WCI 11  
PEACE RIVER FLURRIES 16 12 86 SW5 29.73F  
PINCHER CREEK CLOUDY 28 16 59 W30G37 29.98R WCI 13  

 
 
REGIONAL REPORTS...SASKATCHEWAN  
 
CITY SKY/WX TMP DP RH WIND PRES REMARKS
 
ESTEVAN FOG 9 7 92 W3 30.11 VSB 1/8  
PRINCE ALBERT FLURRIES 10 7 85 SE3 29.97F  
REGINA FOG 9 7 92 S15 30.03F VSB 5/8 WCI -8  
SASKATOON MOCLDY 12 10 92 S9 29.96F WCI 0  
SWIFT CURRENT CLEAR 18 14 86 SW13 29.96F WCI 4  

 
 
 
CLICK HERE TO GO TO PREVIOUS BULLETINS.

The Nexlab MT Page Main Text Page